Weather Roundup
Issued by NWS Chicago, IL

Home | Current Version | Previous Version | Text Only | Print | Product List | Glossary Off
Versions: 1 2 3 4 5 6 7 8 9 10 11 12 13 14 15 16 17 18 19 20 21 22 23 24 25 26 27 28 29 30 31 32 33 34 35 36 37 38 39 40 41 42 43 44 45 46 47 48 49 50

000
NZUS59 KLOT 070721
HRRLOT

CHICAGO AREA WEATHER ROUNDUP
NATIONAL WEATHER SERVICE CHICAGO/ROMEOVILLE IL
200 AM CDT THU MAY 07 2015

NOTE: "FAIR" INDICATES FEW OR NO CLOUDS BELOW 12,000 FEET WITH NO
SIGNIFICANT WEATHER AND/OR OBSTRUCTIONS TO VISIBILITY.

* THESE STATIONS ARE NOT UNDER NWS QUALITY CONTROL. THEY ALSO MAY NOT
  REPORT WEATHER SUCH AS PRECIPITATION OR FOG.

ILZ005-006-012>014-019>023-070800-
NORTHEAST ILLINOIS

CITY           SKY/WX    TMP DP  RH WIND       PRES   REMARKS
OHARE          PTCLDY    55  50  83 E3        30.06F
MIDWAY         PTCLDY    58  51  78 E6        30.06F
AURORA         PTCLDY    62  54  74 SE5       30.05F HAZE
LANSING*       CLEAR     57  51  82 CALM      30.08S
JOLIET*        MOCLDY    60  58  91 CALM      30.06S
WAUKEGAN       CLEAR     46  45  96 CALM      30.06F
DUPAGE AIRPORT PTCLDY    57  54  89 CALM      30.05F
WHEELING       PTCLDY    50  46  86 E3        30.08F
KANKAKEE*      CLEAR     61  56  84 CALM      30.07F
MORRIS*        PTCLDY    64  55  71 SE3       30.04S
LEWIS AIRPORT* PTCLDY    62  54  75 SE7       30.06F
NORTHERLY IS     N/A     49  47  93 CALM        N/A
$$

WIZ051-052-058>065-066-070>072-070800-
SOUTHEAST WISCONSIN

CITY           SKY/WX    TMP DP  RH WIND       PRES   REMARKS
MILWAUKEE      PTCLDY    46  45  96 CALM      30.07F
KENOSHA*       PTCLDY    46  46 100 CALM      30.07S FOG
RACINE*        PTCLDY    45  43  93 CALM      30.08F
BURLINGTON     CLEAR     47  46  99 CALM      30.06S FOG
WAUKESHA       FOG       45  45 100 CALM      30.07F VSB 1/4
WEST BEND      FOG       46  46 100 CALM      30.06F VSB<1/4
$$

INZ001>003-010>013-019-020-070800-
NORTHWEST INDIANA

CITY           SKY/WX    TMP DP  RH WIND       PRES   REMARKS
GARY*          CLEAR     53  49  86 CALM      30.08S
MICHIGAN CITY* NOT AVBL
RENSSELAER*    NOT AVBL
VALPARAISO     CLEAR     62  57  83 E5        30.09F
$$

LMZ740>746-070800-
SOUTHERN LAKE MICHIGAN

STATION/POSITION TIME  SKY/WX   TEMP WIND        PRES    VSBY
                                AIR  DIR/SP/G
                 (UTC)          (F)  (DEG/KT/KT) (MB)    (MI)
HARRISON CRIB    0700            56  180/  4/  6   N/A
BURNHAM HARBOR   0700            50   CALM  /  4   N/A
CALUMET HARBOR   0618            48  330/  1/  3   N/A
BURNS HARBOR     0600            71  140/ 12/ 16 1019.3
MICHIGAN CITY    0700            68  120/ 10/ 12   N/A
$$

ABBREVIATIONS USED IN REMARKS
   TC - TEMPERATURE IN CELSIUS
  WCI - WIND CHILL INDEX
   HX - HEAT INDEX
  VSB - VISIBILITY
$$


USA.gov is the U.S. government's official web portal to all federal, state and local government web resources and services.